Des Moines, IA

10:04 AM CDT on May 28, 2017 (GMT -0500)
Des Moines International

Weather History for KDSM - January, 2014

Change the Weather History Date:

Saturday, January 25, 2014

  Actual Average Record
Temperature  
Mean Temperature 30 °F 23 °F  
Max Temperature 41 °F 31 °F 61 °F (1944)
Min Temperature 18 °F 14 °F -27 °F (1894)
Degree Days  
Heating Degree Days 35 42  
Month to date heating degree days 1163 1064  
Since 1 July heating degree days 3719 3531  
Cooling Degree Days 0 0  
Month to date cooling degree days 0 0  
Year to date cooling degree days 0 0  
Moisture  
Dew Point 11 °F    
Average Humidity 53    
Maximum Humidity 76    
Minimum Humidity 30    
Precipitation  
Precipitation T in 0.04 in 0.92 in (1895)
Month to date precipitation 0.39 0.79  
Year to date precipitation 0.39 0.79  
Snow  
Snow T in 0.30 in 10.00 in (1895)
Month to date snowfall 7.5 6.7  
Since 1 July snowfall 22.5 18.6  
Snow Depth T in    
Sea Level Pressure  
Sea Level Pressure 29.85 in    
Wind  
Wind Speed 16 mph (NW)    
Max Wind Speed 31 mph    
Max Gust Speed 38 mph    
Visibility 9 miles    
Events Snow    
T = Trace of Precipitation, MM = Missing Value Source: NWS Daily Summary

Daily Weather History Graph

Daily Weather History Graph

Search for Another Location

Airport or City:

Trip Planner

Search our weather history database for the weather conditions in past years. The results will help you decide how hot, cold, wet, or windy it might be!

Date:

Astronomy

Jan. 25, 2014 Rise Set
Actual Time 7:32 AM CST 5:21 PM CST
Civil Twilight 7:02 AM CST 5:51 PM CST
Nautical Twilight 6:29 AM CST 6:25 PM CST
Astronomical Twilight 5:56 AM CST 6:58 PM CST
Moon 2:05 AM CST (1/25) 12:22 PM CST (1/25)
Length of Visible Light 10h 48m
Length of Day
9h 49m
Waning Crescent, 34% of the Moon is Illuminated
Jan 25
Waning Crescent
Jan 30
New
Feb 6
First Quarter
Feb 14
Full
Feb 22
Last Quarter

Hourly Weather History & Observations

Time (CST) Temp. Windchill Dew Point Humidity Pressure Visibility Wind Dir Wind Speed Gust Speed Precip Events Conditions
12:54 AM 39.0 °F 30.3 °F 32.0 °F 76% 29.69 in 10.0 mi NNW 16.1 mph - 0.00 in   Overcast
1:33 AM 37.9 °F 30.0 °F 32.0 °F 79% 29.68 in 10.0 mi NNW 12.7 mph - 0.00 in   Light Drizzle
1:54 AM 37.0 °F 28.9 °F 30.9 °F 79% 29.71 in 10.0 mi NW 12.7 mph - 0.00 in   Mostly Cloudy
2:54 AM 37.0 °F 27.0 °F 28.9 °F 73% 29.74 in 9.0 mi NW 18.4 mph - 0.00 in Snow Light Snow
3:13 AM 37.9 °F 28.5 °F 28.9 °F 70% 29.72 in 9.0 mi NNW 17.3 mph 25.3 mph 0.00 in Snow Light Snow
3:40 AM 36.0 °F 26.0 °F 30.0 °F 79% 29.72 in 9.0 mi NW 17.3 mph - 0.00 in   Partly Cloudy
3:54 AM 36.0 °F 27.5 °F 30.9 °F 82% 29.75 in 10.0 mi NW 12.7 mph - 0.00 in   Mostly Cloudy
4:54 AM 34.0 °F 22.4 °F 27.0 °F 75% 29.78 in 7.0 mi North 20.7 mph 31.1 mph 0.00 in Snow Light Snow
5:19 AM 32.0 °F 20.1 °F 24.1 °F 73% 29.78 in 4.0 mi NNW 19.6 mph 27.6 mph 0.00 in Snow Light Snow
5:30 AM 30.0 °F 16.3 °F 21.9 °F 72% 29.79 in 2.0 mi NNW 24.2 mph 32.2 mph 0.00 in Snow Light Snow
5:54 AM 28.0 °F 14.6 °F 19.9 °F 72% 29.83 in 8.0 mi NNW 20.7 mph 32.2 mph 0.00 in Snow Light Snow
6:54 AM 25.0 °F 9.9 °F 10.9 °F 55% 29.89 in 10.0 mi North 23.0 mph 28.8 mph 0.00 in   Mostly Cloudy
7:54 AM 19.0 °F 2.0 °F -5.1 °F 34% 29.94 in 10.0 mi NNW 23.0 mph 32.2 mph N/A   Scattered Clouds
8:54 AM 19.0 °F 3.6 °F -2.9 °F 38% 29.97 in 10.0 mi NNW 18.4 mph 29.9 mph N/A   Partly Cloudy
9:54 AM 19.0 °F 1.3 °F -0.9 °F 42% 30.01 in 10.0 mi NNW 25.3 mph 35.7 mph N/A   Scattered Clouds
10:54 AM 19.9 °F 4.8 °F -2.0 °F 38% 30.03 in 10.0 mi NNW 18.4 mph 29.9 mph N/A   Partly Cloudy
11:54 AM 21.9 °F 6.2 °F -4.0 °F 32% 30.02 in 10.0 mi NNW 21.9 mph 27.6 mph N/A   Scattered Clouds
12:54 PM 23.0 °F 7.6 °F -5.1 °F 29% 30.01 in 10.0 mi NNW 21.9 mph 31.1 mph N/A   Scattered Clouds
1:54 PM 25.0 °F 9.2 °F -2.9 °F 30% 30.01 in 10.0 mi NW 25.3 mph 31.1 mph N/A   Scattered Clouds
2:54 PM 25.0 °F 11.3 °F -0.9 °F 33% 30.00 in 10.0 mi NW 18.4 mph 25.3 mph N/A   Scattered Clouds
3:54 PM 25.0 °F 11.7 °F -2.9 °F 30% 29.99 in 10.0 mi NNW 17.3 mph - N/A   Scattered Clouds
4:54 PM 25.0 °F 15.5 °F 1.0 °F 36% 29.97 in 10.0 mi NW 9.2 mph - N/A   Mostly Cloudy
5:54 PM 24.1 °F 15.2 °F 1.0 °F 37% 29.97 in 10.0 mi West 8.1 mph - N/A   Mostly Cloudy
6:54 PM 24.1 °F - 1.0 °F 37% 29.94 in 10.0 mi Calm Calm - N/A   Overcast
7:54 PM 23.0 °F 13.9 °F 3.9 °F 44% 29.88 in 10.0 mi SSE 8.1 mph - N/A   Overcast
8:54 PM 24.1 °F 13.1 °F 5.0 °F 44% 29.82 in 10.0 mi SSE 11.5 mph - N/A   Overcast
9:54 PM 25.0 °F 14.2 °F 5.0 °F 43% 29.75 in 10.0 mi South 11.5 mph - N/A   Overcast
10:54 PM 26.1 °F 15.0 °F 6.1 °F 43% 29.66 in 10.0 mi South 12.7 mph - N/A   Overcast
11:54 PM 28.9 °F 16.9 °F 8.1 °F 41% 29.57 in 10.0 mi South 17.3 mph - N/A   Overcast